Location: De Har
(53.3413°N, 6.6858°E)
Time: 21:00:08
(UTC+00:00)

CZ-4C R/B - Pass Details

Date: 22 April 2026
Orbit: 408 x 499 km, 98.0° (Epoch: 21 May)

Event Time Altitude Azimuth Distance (km) Brightness Sun altitude
Rises 00:36:38 0° 10° (N) 2,359 8.0 -23.1°
Reaches altitude 10° 00:38:40 10° 5° (N) 1,490 6.6 -23.0°
Enters shadow 00:40:57 38° 334° (NNW) 654 4.0 -22.9°
